Regional Weather Roundup
Issued by NWS

Home | Current Version | Previous Version | Text Only | Print | Product List | Glossary Off
Versions: 1 2 3 4 5 6 7 8 9 10 11 12 13 14 15 16 17 18 19 20 21 22 23 24 25 26 27 28 29 30 31 32 33 34 35 36 37 38 39 40 41 42 43 44 45 46 47 48 49 50

000
ASUS44 KMEG 292310
RWRTN
TENNESSEE HOURLY STATE WEATHER ROUNDUP
NATIONAL WEATHER SERVICE MEMPHIS TN
600 PM CDT SUN MAR 29 2015

TNZ002-004-019-021-049-052-054-088>092-300000-
WEST TENNESSEE

CITY           SKY/WX    TMP DP  RH WIND       PRES   REMARKS
MEMPHIS INTL   MOSUNNY   68  50  52 S17       30.02F
NWS MEMPHIS      N/A     71 N/A N/A MISG        N/A
JACKSON        SUNNY     65  41  41 S8G18     30.03F
DYERSBURG      SUNNY    N/A N/A N/A S9G20     30.01S
UNION CITY     SUNNY     61  46  59 S12       29.99S
PARIS          SUNNY     59  39  47 S13       30.00F
HUNTINGDON     SUNNY     61  38  42 S14       30.01F
LEXINGTON      SUNNY     61  39  44 S12       30.05F
SAVANNAH       SUNNY     63  39  42 S14       30.08F
$$

TNZ008-025-027-028-033-062-065-066-300000-
NORTH MIDDLE TENNESSEE

CITY           SKY/WX    TMP DP  RH WIND       PRES   REMARKS
NASHVILLE      MOSUNNY   60  33  36 S20G25    30.08F
CLARKSVILLE    MOSUNNY   62  37  39 S21G33    29.99F
SMYRNA         PTSUNNY   60  33  36 S15G25    30.10F
COOKEVILLE     CLOUDY    59  30  33 SW10      30.10S
CROSSVILLE     SUNNY     56  20  24 S10G18    30.11F
$$

TNZ061-075-076-078-094-096-097-300000-
SOUTH MIDDLE TENNESSEE

CITY           SKY/WX    TMP DP  RH WIND       PRES   REMARKS
FAYETTEVILLE   PTSUNNY   57  34  41 S10       30.15S
TULLAHOMA      CLOUDY    55  28  35 S9        30.15R
WINCHESTER     CLOUDY    57  30  35 S10       30.16R
MCMINNVILLE    CLOUDY    59  30  33 SW12      30.12F
COLUMBIA       PTSUNNY   61  39  44 S13G22    30.08F
SHELBYVILLE    CLOUDY    59  34  38 S14       30.13F
$$

TNZ017-018-042-046-047-300000-
NORTHEAST TENNESSEE

CITY           SKY/WX    TMP DP  RH WIND       PRES   REMARKS
TRI CITIES     MOCLDY    54  12  18 S6        30.13F
ELIZABETHTON   CLEAR     52  14  22 CALM      30.13F
$$

TNZ012-013-036-069-073-074-300000-
CENTRAL EAST TENNESSEE

CITY           SKY/WX    TMP DP  RH WIND       PRES   REMARKS
KNOXVILLE      MOSUNNY   58  19  22 SW17      30.14F
OAK RIDGE      SUNNY     59  17  19 SW8G21    30.15F
GATLINBURG     CLEAR     59  16  18 NW6       30.14S
MORRISTOWN     CLEAR     57  18  21 W5        30.14S
$$

TNZ083-085-099-300000-
SOUTHEAST TENNESSEE

CITY           SKY/WX    TMP DP  RH WIND       PRES   REMARKS
CHATTANOOGA    PTSUNNY   61  25  25 S8G20     30.18S
$$

SKY/WX REPORTED AS FAIR MEANS FEW OR NO CLOUDS BELOW
12 THOUSAND FEET.




USA.gov is the U.S. government's official web portal to all federal, state and local government web resources and services.